Weather reports worldwide

Advertisment
Lanzarote Airport (AWS), Spain (60040): temperature & dewpoint: 17.04.2018 14:00:00 - 23.04.2018 14:00:00 (WEST)Lanzarote Airport (AWS), Spain (60040): wind speed: 17.04.2018 14:00:00 - 23.04.2018 14:00:00 (WEST)Lanzarote Airport (AWS), Spain (60040): wind direction: 17.04.2018 14:00:00 - 23.04.2018 14:00:00 (WEST)Lanzarote Airport (AWS), Spain (60040): reduced air pressure: 17.04.2018 14:00:00 - 23.04.2018 14:00:00 (WEST)Lanzarote Airport (AWS), Spain (60040): visibility: 17.04.2018 14:00:00 - 23.04.2018 14:00:00 (WEST)
Date & Time tt [°C] td [°C] ff [km/h] ff [kn] dd ppp [hPa] vv [km]
23.04.2018 14:00:00 21,6 12,4 28 15 NW 1015,5 -
23.04.2018 13:00:00 21,9 12,4 29 16 NW 1015,9 25
23.04.2018 12:00:00 21,8 11,9 22 12 NW 1016,3 -
23.04.2018 11:00:00 20,5 11,4 29 16 NW 1016,1 -
23.04.2018 10:00:00 19,0 12,6 28 15 NW 1015,7 25
23.04.2018 09:00:00 16,0 14,6 28 15 NNW 1015,7 -
23.04.2018 08:00:00 16,6 13,3 24 13 NNW 1015,4 -
23.04.2018 07:00:00 16,8 13,1 28 15 NNW 1014,6 25
23.04.2018 06:00:00 16,9 13,4 22 12 NW 1014,4 -
23.04.2018 05:00:00 16,9 12,6 28 15 NW 1014,3 -
23.04.2018 04:00:00 17,0 12,7 24 13 NW 1014,5 -
23.04.2018 03:00:00 17,1 13,0 18 10 NW 1015,0 -
23.04.2018 02:00:00 17,2 12,7 22 12 NW 1015,9 -
23.04.2018 01:00:00 17,3 13,6 26 14 NW 1016,4 25
23.04.2018 00:00:00 17,5 13,0 18 10 NW 1016,4 -
22.04.2018 23:00:00 17,7 12,8 22 12 NW 1016,1 -
22.04.2018 22:00:00 17,7 12,7 22 12 NNW 1016,0 25
22.04.2018 21:00:00 17,9 12,8 21 11 NW 1015,1 -
22.04.2018 20:00:00 18,5 12,3 22 12 NNW 1014,8 -
22.04.2018 19:00:00 20,1 12,3 26 14 NW 1014,5 25
22.04.2018 18:00:00 20,9 12,4 26 14 NNW 1014,2 -
22.04.2018 17:00:00 22,1 11,6 26 14 NW 1013,8 -
22.04.2018 16:00:00 22,2 13,8 22 12 NW 1014,0 25
22.04.2018 15:00:00 22,3 12,1 22 12 WNW 1014,1 -
22.04.2018 14:00:00 20,9 13,3 21 11 WNW 1014,5 -
22.04.2018 13:00:00 19,4 14,3 22 12 WNW 1014,9 18
22.04.2018 12:00:00 20,4 13,5 22 12 W 1015,1 -
22.04.2018 11:00:00 18,2 14,2 16 9 W 1015,4 -
22.04.2018 10:00:00 19,1 12,9 16 9 WNW 1014,9 25
22.04.2018 09:00:00 18,9 12,6 16 9 W 1014,6 -
22.04.2018 08:00:00 16,9 13,0 9 5 WNW 1014,1 -
22.04.2018 07:00:00 16,0 12,7 9 5 W 1013,9 25
22.04.2018 06:00:00 16,1 12,6 9 5 W 1013,6 -
22.04.2018 05:00:00 16,9 12,4 15 8 WNW 1013,7 -
22.04.2018 04:00:00 16,8 12,5 15 8 WNW 1013,8 -
22.04.2018 03:00:00 16,9 13,2 15 8 NW 1014,0 -
22.04.2018 02:00:00 17,3 13,5 22 12 NW 1014,4 -
22.04.2018 01:00:00 17,5 13,8 21 11 WNW 1014,8 30
22.04.2018 00:00:00 18,0 12,9 18 10 W 1014,9 -
21.04.2018 23:00:00 18,1 13,0 18 10 WNW 1014,9 -
21.04.2018 22:00:00 18,2 13,5 18 10 W 1014,4 30
21.04.2018 21:00:00 18,7 14,0 26 14 W 1013,7 -
21.04.2018 20:00:00 19,4 12,9 26 14 W 1013,1 -
21.04.2018 19:00:00 20,6 12,0 29 16 W 1012,8 30
21.04.2018 18:00:00 21,1 12,8 35 19 W 1012,9 -
21.04.2018 17:00:00 21,6 12,2 29 16 W 1013,0 -
21.04.2018 16:00:00 21,7 12,7 31 17 W 1013,3 30
21.04.2018 15:00:00 21,3 11,9 29 16 W 1013,5 -
21.04.2018 14:00:00 22,6 11,6 34 18 W 1013,6 -
21.04.2018 13:00:00 21,2 11,7 29 16 W 1014,1 30
21.04.2018 12:00:00 21,4 11,4 28 15 W 1014,6 -
21.04.2018 11:00:00 20,4 10,8 26 14 W 1014,5 -
21.04.2018 10:00:00 19,1 10,2 26 14 W 1014,4 30
21.04.2018 09:00:00 18,1 10,8 28 15 W 1013,9 -
21.04.2018 08:00:00 15,8 10,1 15 8 W 1013,9 -
21.04.2018 07:00:00 14,8 10,2 13 7 W 1013,8 25
21.04.2018 06:00:00 15,4 10,6 21 11 WNW 1013,9 -
21.04.2018 05:00:00 15,1 9,0 15 8 W 1014,5 -
21.04.2018 04:00:00 13,8 8,0 8 4 W 1014,8 -
21.04.2018 03:00:00 14,1 7,2 9 5 SW 1015,4 -
21.04.2018 02:00:00 15,2 7,5 8 4 NW 1016,2 -
21.04.2018 01:00:00 15,8 7,8 8 4 WNW 1016,8 25
21.04.2018 00:00:00 16,2 8,9 11 6 NW 1016,8 -
20.04.2018 23:00:00 16,7 8,8 18 10 NW 1017,1 -
20.04.2018 22:00:00 16,7 7,3 18 10 NNW 1016,7 30
20.04.2018 21:00:00 16,9 7,9 24 13 NNW 1016,3 -
20.04.2018 20:00:00 18,0 8,9 29 16 NW 1015,7 -
20.04.2018 19:00:00 19,1 8,5 28 15 NNW 1015,5 30
20.04.2018 18:00:00 20,2 8,3 34 18 NNW 1015,4 -
20.04.2018 17:00:00 20,3 9,0 28 15 N 1015,4 -
20.04.2018 16:00:00 21,3 7,0 34 18 NNW 1015,8 30
20.04.2018 15:00:00 21,1 7,3 31 17 NNW 1016,1 -
20.04.2018 14:00:00 22,0 8,3 34 18 NNW 1016,1 30
20.04.2018 13:00:00 20,9 9,7 29 16 NNW 1016,3 30
20.04.2018 12:00:00 20,7 9,3 31 17 NNW 1016,3 -
20.04.2018 11:00:00 20,6 9,3 34 18 N 1016,4 -
20.04.2018 10:00:00 19,3 10,1 31 17 NNW 1016,3 25
20.04.2018 09:00:00 17,9 9,7 29 16 NNW 1016,2 -
20.04.2018 08:00:00 17,0 10,8 22 12 N 1016,1 -
20.04.2018 07:00:00 16,4 11,1 28 15 N 1015,6 25
20.04.2018 06:00:00 16,5 11,4 26 14 N 1015,2 -
20.04.2018 05:00:00 16,7 11,8 18 10 N 1015,4 -
20.04.2018 04:00:00 17,0 12,3 24 13 NNW 1015,8 -
20.04.2018 03:00:00 17,0 12,9 26 14 NNW 1016,0 -
20.04.2018 02:00:00 17,4 13,3 26 14 NNW 1016,1 -
20.04.2018 01:00:00 17,9 14,5 21 11 N 1016,9 25
20.04.2018 00:00:00 17,9 14,4 18 10 N 1017,4 -
19.04.2018 23:00:00 17,8 14,1 34 18 N 1017,2 -
19.04.2018 22:00:00 17,8 13,9 29 16 N 1016,4 25
19.04.2018 21:00:00 18,4 14,2 29 16 N 1015,6 -
19.04.2018 20:00:00 19,1 13,5 44 24 NNW 1015,0 -
19.04.2018 19:00:00 20,4 13,6 48 26 NNW 1013,9 25
19.04.2018 18:00:00 21,8 12,9 48 26 NNW 1013,4 -
19.04.2018 17:00:00 22,9 8,9 46 25 NNW 1013,8 -
19.04.2018 16:00:00 24,3 9,0 39 21 NNW 1014,5 30
19.04.2018 15:00:00 25,1 9,9 35 19 NNW 1014,7 -
19.04.2018 14:00:00 25,4 5,7 41 22 NNW 1015,2 -
19.04.2018 13:00:00 25,5 9,0 35 19 NNW 1015,2 30
19.04.2018 12:00:00 24,7 11,3 28 15 NNW 1015,6 -
19.04.2018 11:00:00 23,0 11,8 28 15 NNW 1015,9 -
19.04.2018 10:00:00 20,9 13,4 34 18 NNW 1015,4 30
19.04.2018 09:00:00 18,8 13,9 34 18 NNW 1015,4 -
19.04.2018 08:00:00 17,7 13,7 41 22 NNW 1015,9 -
19.04.2018 07:00:00 17,2 14,5 31 17 NNW 1014,9 20
19.04.2018 06:00:00 17,3 14,4 26 14 NNW 1015,4 -
19.04.2018 05:00:00 17,5 14,7 34 18 NNW 1014,9 -
19.04.2018 04:00:00 17,6 14,5 31 17 NNW 1015,7 -
19.04.2018 03:00:00 17,6 14,4 22 12 NNW 1016,4 -
19.04.2018 02:00:00 17,5 14,6 29 16 NNW 1016,8 -
19.04.2018 01:00:00 17,9 13,8 18 10 NNW 1017,3 15
19.04.2018 00:00:00 18,9 13,0 18 10 N 1017,4 -
18.04.2018 23:00:00 19,5 11,3 26 14 NNW 1017,6 -
18.04.2018 22:00:00 19,7 12,1 22 12 NW 1017,3 13
18.04.2018 21:00:00 20,7 8,9 13 7 N 1016,6 13
18.04.2018 20:00:00 21,9 10,9 18 10 NNW 1016,2 -
18.04.2018 19:00:00 23,4 16,2 11 6 SSW 1016,2 13
18.04.2018 18:00:00 25,1 14,0 31 17 NNW 1015,7 -
18.04.2018 17:00:00 26,3 13,3 28 15 NNW 1016,3 -
18.04.2018 16:00:00 26,9 12,5 29 16 NNW 1016,9 13
18.04.2018 15:00:00 28,0 11,5 22 12 NNW 1017,0 -
18.04.2018 14:00:00 27,8 11,8 31 17 NNW 1017,3 -
18.04.2018 13:00:00 27,5 13,5 24 13 NNW 1017,2 13
18.04.2018 12:00:00 25,7 15,8 15 8 WSW 1017,3 -
18.04.2018 11:00:00 25,5 14,8 24 13 N 1017,3 -
18.04.2018 10:00:00 22,3 14,3 29 16 N 1017,4 15
18.04.2018 09:00:00 20,9 11,9 13 7 NNW 1017,4 -
18.04.2018 08:00:00 17,8 8,6 8 4 WSW 1016,8 -
18.04.2018 07:00:00 17,3 8,7 8 4 N 1016,4 25
18.04.2018 06:00:00 17,9 8,7 8 4 NW 1016,0 -
18.04.2018 05:00:00 17,0 9,3 2 1 WSW 1016,2 -
18.04.2018 04:00:00 17,3 10,1 11 6 NNE 1016,2 -
18.04.2018 03:00:00 17,9 11,9 11 6 N 1016,6 -
18.04.2018 02:00:00 17,6 12,3 13 7 NNE 1017,3 -
18.04.2018 01:00:00 17,3 12,0 9 5 NNE 1018,0 20
18.04.2018 00:00:00 17,7 13,4 9 5 NNE 1017,9 -
17.04.2018 23:00:00 18,6 14,5 11 6 NNW 1018,0 -
17.04.2018 22:00:00 19,1 16,5 9 5 SSW 1017,3 20
17.04.2018 21:00:00 19,9 16,1 5 3 SE 1016,6 -
17.04.2018 20:00:00 21,6 16,5 11 6 S 1016,0 -
17.04.2018 19:00:00 25,0 15,5 18 10 N 1015,7 20
17.04.2018 18:00:00 26,4 15,7 24 13 N 1015,8 20
17.04.2018 17:00:00 27,2 15,6 21 11 N 1016,2 -
17.04.2018 16:00:00 28,2 14,1 21 11 N 1016,5 20
17.04.2018 15:00:00 28,6 15,5 22 12 N 1017,0 -
17.04.2018 14:00:00 28,3 15,3 18 10 NNE 1017,7 -

tt = temperature
td = dewpoint
ff = wind speed
dd = wind direction
ppp = reduced air pressure
vv = visibility

Next stations